Roda de Ter - l'Esquerda





Hora UTC 02:45
Temperatura 12.9 ºC
Humitat 71.0 %
Pressió 1007.4 hPa
Pluja 0.0 mm
Velocitat vent 1.6 km/h
Direcció vent N

Dades diàries 2022-05-23



Hora UTC (hivern +1h; estiu +2h)
Temperatura (ºC) Humitat (%) Pressió (hPa) Velocitat vent (km/h) Precipitació (mm)
Hora UTC Aire Humitat Pressió Vel. Dir. Vel. Max Dir. Intent. màx 5 min.
00:05 14.7 67.0 1009.0 1.6 N 1.6 0.0
00:10 14.6 65.0 1008.8 1.6 N 4.8 0.0
00:15 14.6 65.0 1009.1 1.6 N 8.0 0.0
00:20 14.5 65.0 1009.4 1.6 N 8.0 0.0
00:25 14.6 65.0 1009.2 3.2 N 8.0 0.0
00:30 14.7 65.0 1008.9 1.6 N 4.8 0.0
00:35 15.1 62.0 1008.7 0.0 N 6.4 0.0
00:40 15.3 62.0 1008.7 1.6 N 6.4 0.0
00:45 15.4 60.0 1008.7 1.6 N 4.8 0.0
00:50 15.5 61.0 1008.4 3.2 N 4.8 0.0
00:55 15.7 61.0 1008.4 1.6 N 4.8 0.0
01:00 15.6 63.0 1008.5 3.2 N 8.0 0.0
01:05 15.6 63.0 1008.0 3.2 N 8.0 0.0
01:10 15.7 61.0 1008.0 1.6 N 6.4 0.0
01:15 15.5 62.0 1008.3 6.4 N 6.4 0.0
01:20 15.1 64.0 1008.2 1.6 N 9.7 0.0
01:25 14.6 65.0 1008.5 3.2 N 6.4 0.0
01:30 14.3 66.0 1008.7 6.4 N 9.7 0.0
01:35 14.3 64.0 1008.5 1.6 N 8.0 0.0
01:40 14.7 62.0 1008.4 3.2 N 8.0 0.0
01:45 14.7 63.0 1008.4 1.6 N 4.8 0.0
01:50 14.6 65.0 1008.3 0.0 N 6.4 0.0
01:55 14.4 63.0 1008.2 0.0 N 6.4 0.0
02:00 14.3 65.0 1008.1 0.0 N 3.2 0.0
02:05 14.1 68.0 1008.1 1.6 N 3.2 0.0
02:10 14.0 67.0 1008.0 0.0 N 3.2 0.0
02:15 13.8 67.0 1008.1 0.0 N 3.2 0.0
02:20 13.4 67.0 1007.9 1.6 N 4.8 0.0
02:25 13.3 69.0 1007.9 1.6 N 4.8 0.0
02:30 13.2 70.0 1007.7 1.6 N 3.2 0.0
02:35 13.1 69.0 1007.7 0.0 N 3.2 0.0
02:40 12.8 68.0 1007.6 0.0 N 1.6 0.0
02:45 12.9 71.0 1007.4 1.6 N 3.2 0.0
Màxima 17.1 71.0 1009.4 6.4 N 9.7 0.0
Mínima 12.8 60.0 1007.4
Total 0.0